Temperature
26 27 27 27 27 27 27 28 28 28 28 28 27 26 25 23 22 22 22 21 21 20 20 20 19 19 19 19 19 19 19 18 19 18 18 18 18 18 18 18 18 18 17 17
25 26 26 26 26 26 27 27 27 27 27 28 26 24 23 22 22 21 21 20 20 20 19 19 19 19 19 19 18 18 18 18 18 18 18 18 18 18 18 18 17 17 17 17
25 25 25 25 26 26 26 26 26 26 26 26 25 24 23 22 21 21 20 20 19 19 19 18 18 18 18 18 18 18 18 18 18 18 18 18 17 17 17 17 17 17 17 16
24 24 23 25 25 25 25 25 25 25 25 24 24 22 21 21 20 20 19 19 18 18 18 18 18 18 18 18 18 18 17 17 17 17 17 17 17 17 17 17 16 16 16 16
23 23 24 24 24 24 24 24 24 24 23 23 22 22 21 20 19 19 18 18 18 18 18 18 17 17 18 17 17 17 17 17 17 17 17 17 16 17 16 16 16 16 16 16
22 22 23 24 23 23 23 23 23 23 22 22 21 23 22 19 18 18 18 17 17 17 17 17 17 17 17 17 17 17 17 17 17 16 16 16 16 16 16 16 16 16 15 15
21 22 23 22 22 22 22 22 21 21 21 20 20 21 19 18 17 17 17 17 17 16 16 16 16 16 16 17 17 16 16 16 16 16 16 16 16 16 16 15 15 15 15 15
21 21 22 21 21 21 20 19 19 19 19 19 19 18 18 17 16 16 16 16 16 15 15 15 16 16 16 16 16 16 16 16 16 16 16 16 16 15 15 15 15 15 14 14
20 21 19 19 19 18 18 18 18 18 18 18 18 17 17 16 16 16 15 15 15 15 15 15 15 15 15 16 16 16 16 16 15 15 15 15 15 15 14 14 14 14 14 14
19 19 19 18 18 17 17 17 17 17 17 17 17 17 16 16 15 15 15 15 15 14 14 14 14 15 15 15 15 15 15 15 14 14 14 14 14 14 14 14 14 14 14 14
18 18 18 17 17 16 16 16 16 16 16 16 16 16 15 15 14 14 14 14 14 14 14 14 14 14 14 14 14 14 14 14 14 14 14 14 13 13 13 13 13 13 13 13
18 17 17 17 16 15 15 15 15 15 15 15 15 15 15 14 14 14 14 14 13 13 13 13 13 13 13 13 13 13 13 13 13 13 13 13 13 13 13 13 13 13 13 13
16 15 15 15 15 15 15 15 14 14 14 14 14 14 14 14 13 13 13 13 13 13 13 13 13 13 13 13 13 13 13 13 13 13 13 13 13 13 13 13 13 12 12 12
14 14 14 14 14 14 14 14 14 14 14 14 13 13 13 13 13 13 13 13 13 13 13 13 12 12 12 12 12 12 12 12 12 12 12 12 12 12 12 12 12 12 12 12
14 14 14 14 13 13 13 13 13 13 13 13 13 12 12 12 12 12 12 12 12 12 12 12 12 12 12 12 12 12 12 12 12 12 12 12 12 12 12 12 12 12 11 11
14 13 13 13 13 13 13 13 13 13 13 12 12 12 12 12 12 12 12 12 12 12 12 12 12 12 12 12 12 12 12 12 11 11 11 11 11 11 11 11 11 11 11 11
13 13 13 13 13 13 13 13 12 12 12 12 11 11 11 11 11 11 11 12 12 12 11 11 12 11 11 11 11 11 11 11 11 11 11 11 11 11 11 11 11 11 10 10
12 12 12 12 12 12 12 12 12 12 11 11 11 11 11 11 11 11 11 11 11 11 11 11 11 11 11 11 11 11 11 11 11 11 11 10 10 10 10 10 10 10 10 10
12 12 12 12 11 11 12 11 11 11 11 11 11 11 11 11 11 11 11 11 11 11 11 11 11 11 11 11 11 11 11 10 10 10 10 10 10 10 10 10 10 10 10 10
12 12 12 11 11 11 11 11 11 11 11 11 11 10 10 10 10 10 10 10 10 10 10 10 11 11 10 10 10 10 10 10 10 10 10 10 10 10 10 10 10 10 9 9
11 11 11 11 11 11 11 11 11 10 10 10 10 10 10 10 10 10 10 10 10 10 10 10 10 10 10 10 10 10 10 10 10 10 10 10 9 9 9 9 9 9 9 9
11 11 11 11 11 11 11 10 10 10 10 10 10 10 10 10 10 10 10 10 10 10 10 10 10 10 10 10 10 10 10 10 10 9 9 9 9 9 9 9 9 9 9 8
11 11 11 11 10 10 10 10 10 10 10 10 10 10 10 10 11 11 10 10 10 10 10 10 10 10 10 10 10 10 10 9 9 9 9 9 9 9 9 8 8 8 8 8
10 10 10 10 10 10 10 10 10 10 10 10 10 10 10 10 10 10 10 10 10 10 10 10 10 9 9 9 9 9 9 9 9 9 9 9 9 9 8 8 8 8 7 7
10 10 10 10 10 10 10 10 10 10 10 10 10 10 10 10 10 10 10 10 10 10 9 9 9 9 9 9 9 9 9 9 9 8 8 8 8 8 8 8 7 7 7 7
10 10 10 10 10 10 10 10 10 10 10 10 10 10 10 10 10 10 10 9 9 9 9 9 9 9 9 9 9 9 9 8 8 8 8 8 8 8 7 7 7 7 7 6
10 10 10 10 10 10 10 10 10 10 10 10 10 10 10 10 10 10 9 9 9 9 9 9 9 9 9 8 8 8 8 8 8 8 8 7 7 7 7 7 6 6 6 6
Wind_Speed
10 9 9 11 12 13 15 16 17 15 13 10 5 4 3 2 2 2 2 2 2 3 3 3 3 3 4 4 5 6 7 8 8 8 7 7 8 7 7 7 7 7 7 6
11 10 10 12 12 13 14 15 15 14 13 6 3 2 3 3 2 2 2 1 1 2 2 3 3 3 3 3 4 5 5 6 6 7 7 7 7 7 7 7 6 6 6 6
11 9 11 14 12 12 12 11 12 13 9 4 4 4 4 4 3 3 2 2 1 1 2 2 2 2 3 3 3 4 4 4 5 6 5 6 6 6 6 6 6 6 5 6
10 9 14 5 1 5 8 8 8 8 6 5 4 3 3 3 2 1 1 1 1 1 1 1 2 2 2 2 3 3 4 4 4 5 5 5 5 5 6 5 5 5 5 6
9 12 12 6 3 4 7 8 5 6 4 3 2 3 3 1 1 1 1 1 1 1 1 1 1 2 2 2 2 3 3 3 3 4 5 5 5 4 4 4 4 5 5 5
9 11 11 4 1 2 6 8 2 3 3 3 3 6 3 0 1 2 1 1 1 1 1 2 1 2 2 2 3 3 2 2 2 3 4 5 4 4 4 4 4 4 4 4
13 12 8 1 2 2 7 2 3 2 3 4 5 5 2 1 1 2 2 2 2 1 1 1 2 2 2 2 2 2 2 2 2 2 3 4 4 4 4 4 3 3 4 4
10 11 7 3 2 4 3 5 5 4 4 4 5 4 1 1 1 2 2 2 2 2 1 1 1 2 3 2 2 2 3 3 3 2 2 2 3 3 3 3 4 4 4 3
6 4 2 3 4 4 5 6 5 5 5 5 4 4 2 2 2 2 2 2 2 2 1 1 1 2 2 2 2 3 3 3 2 2 1 1 2 3 4 4 3 3 3 2
7 6 5 5 4 4 4 5 6 6 5 5 5 4 3 2 2 2 2 2 2 1 1 2 2 1 1 1 2 3 3 3 2 2 2 2 1 2 3 3 3 3 2 2
9 8 7 5 4 5 6 6 6 5 4 4 4 4 3 3 2 2 2 2 2 2 2 2 2 1 1 1 2 3 3 3 3 3 2 2 2 0 1 1 1 2 2 2
7 5 6 6 6 7 7 6 5 5 5 4 4 4 3 3 3 2 2 2 2 2 3 2 2 1 1 1 2 2 3 3 3 3 3 2 3 2 3 1 2 1 1 1
8 8 8 8 8 8 8 7 6 5 5 4 3 3 3 3 3 3 3 3 3 3 3 3 2 2 2 1 2 2 2 2 2 2 2 2 2 2 2 1 2 2 2 3
7 7 8 7 7 7 6 6 5 5 4 3 3 2 2 2 2 3 3 4 4 4 4 3 3 2 2 1 2 2 2 2 2 3 2 2 2 2 2 2 1 1 2 4
6 6 7 7 6 6 5 5 4 4 3 3 2 2 2 2 2 2 2 2 3 3 3 3 2 2 1 1 2 2 2 2 2 2 2 2 2 2 2 1 1 1 1 2
5 4 4 5 4 4 4 4 3 3 3 2 2 2 1 1 1 1 1 1 2 2 2 2 2 1 1 2 2 2 2 2 2 2 2 2 3 2 2 2 2 2 2 1
5 5 4 4 4 4 3 3 3 3 2 2 1 1 0 1 1 1 1 1 1 1 1 0 0 0 1 2 2 2 2 3 5 3 3 3 3 3 3 3 2 2 2 0
5 5 4 4 3 3 3 2 2 1 1 1 1 1 0 0 0 1 2 2 2 2 2 2 1 1 1 2 2 2 2 2 2 2 2 2 2 3 3 3 2 2 2 1
2 2 2 2 2 2 2 1 1 1 1 1 1 1 1 1 1 2 2 2 2 2 2 2 1 1 1 2 2 2 2 2 2 2 1 1 2 2 2 2 2 2 2 1
2 1 1 1 1 1 1 0 1 1 1 1 2 2 2 1 2 2 2 2 3 3 2 2 1 1 2 2 2 2 2 1 1 0 1 1 1 1 1 1 2 2 2 2
3 3 2 2 2 1 1 1 1 1 1 2 2 2 1 1 1 1 1 2 2 2 2 1 1 1 2 2 2 2 2 1 1 0 0 0 1 1 1 1 1 1 1 2
3 3 3 2 2 2 2 2 2 2 2 2 2 2 1 1 1 1 2 1 2 2 1 1 2 4 3 1 1 2 1 1 1 1 0 0 0 1 1 1 1 1 1 1
3 3 2 2 2 2 3 3 3 3 2 2 2 1 1 1 1 1 2 2 2 3 2 3 4 4 2 0 1 1 1 1 0 1 0 0 1 1 1 1 1 2 2 2
2 2 2 2 2 2 3 3 2 2 2 1 1 1 1 1 1 2 2 4 3 2 2 4 4 2 2 1 0 0 1 0 0 0 0 0 1 1 1 2 2 2 2 2
2 1 1 2 2 2 2 2 2 2 1 1 2 2 1 2 1 2 3 3 4 2 2 4 4 0 1 1 1 1 1 1 1 1 1 1 1 1 1 1 2 2 2 2
1 1 1 1 1 1 1 1 1 1 1 1 1 2 2 2 2 2 2 3 3 2 1 2 2 1 1 1 1 1 0 1 0 1 1 1 1 1 1 1 1 2 2 2
1 1 1 1 1 1 1 1 1 1 1 1 2 2 2 2 2 2 2 2 2 2 1 1 1 1 1 2 1 1 1 0 0 1 1 0 1 1 1 1 1 2 2 2
Wind_Direction
269 277 271 261 251 244 245 253 259 261 258 263 259 255 239 223 213 198 180 172 163 164 164 172 177 180 186 192 193 194 197 196 196 199 202 205 206 206 204 207 212 216 219 220
257 256 260 260 255 249 249 251 254 259 262 271 270 240 220 209 205 208 198 210 202 181 175 173 169 175 178 184 185 187 191 192 191 196 201 202 204 203 203 206 209 210 214 219
257 251 260 249 248 248 246 247 250 253 264 265 250 233 230 223 212 219 209 219 231 229 207 185 178 168 170 174 177 178 180 186 187 191 194 195 199 198 202 205 203 206 212 217
259 253 249 250 261 259 254 250 252 260 266 261 258 241 234 208 199 204 234 232 237 228 217 183 161 150 155 155 162 168 170 174 177 179 183 186 189 194 200 204 205 207 214 221
251 250 253 238 240 255 255 252 253 256 262 256 244 217 209 188 252 252 250 253 250 290 244 156 156 158 159 162 164 167 169 169 167 174 179 181 182 188 195 197 204 210 208 218
244 255 252 239 90 318 270 244 211 252 257 258 248 245 241 202 272 285 284 259 258 247 210 183 188 176 183 184 180 183 177 165 164 171 183 187 189 195 199 201 207 217 214 215
243 249 253 11 350 253 241 274 16 314 267 250 253 285 295 246 269 276 272 254 237 220 192 192 204 199 197 196 193 183 165 162 168 177 187 190 192 198 202 209 209 218 227 222
238 244 241 38 301 267 331 352 329 311 286 273 281 289 267 231 257 273 277 255 229 208 201 209 221 216 214 209 187 173 166 161 168 180 198 185 184 199 204 207 210 215 217 224
247 256 353 334 319 325 318 313 313 303 293 280 278 276 261 257 262 277 284 274 246 225 218 241 243 229 227 212 188 183 175 167 164 157 165 176 179 195 206 202 212 217 213 215
255 253 272 288 298 317 323 318 314 305 293 279 277 278 274 266 271 267 270 265 259 239 247 260 260 239 212 202 194 184 179 170 167 168 174 164 188 204 214 205 204 211 220 224
255 263 275 261 286 312 316 314 315 309 290 281 280 275 266 269 273 271 260 257 251 252 250 254 260 253 222 193 195 194 193 191 189 191 184 175 181 208 229 226 237 229 230 233
264 281 283 284 297 304 304 305 310 308 298 289 280 269 267 266 263 265 269 259 252 257 261 260 243 242 240 213 187 190 198 201 204 196 182 183 167 138 77 98 91 143 181 224
277 288 289 287 292 292 294 299 301 300 297 294 289 271 266 262 255 258 263 260 253 260 269 265 243 249 250 233 209 198 202 202 212 211 197 195 190 187 188 162 147 151 164 159
273 283 280 281 288 293 298 303 301 298 300 295 281 274 268 263 262 260 266 274 274 267 264 258 245 241 239 237 231 214 213 195 210 224 215 204 206 210 213 219 197 202 185 168
271 274 275 284 288 292 295 297 302 304 307 311 309 285 263 260 265 276 275 271 272 267 262 259 243 236 226 218 228 228 221 219 205 211 213 211 208 211 219 225 247 254 277 165
284 279 273 277 280 287 291 293 299 308 308 308 312 308 292 278 290 312 304 273 250 263 270 250 243 250 222 204 211 208 194 170 186 200 206 211 212 212 218 224 247 261 256 263
270 277 283 287 286 288 294 300 302 308 312 300 281 285 106 89 35 4 352 360 357 331 321 313 235 194 192 184 187 185 177 166 165 190 207 213 218 221 223 229 235 251 257 335
266 276 290 293 293 301 309 313 316 317 306 287 240 199 125 74 30 34 43 56 54 47 39 34 58 123 162 156 155 160 159 164 176 183 192 205 224 235 230 226 225 233 240 204
296 291 297 315 317 312 319 338 355 5 48 108 136 101 82 64 68 78 66 58 37 23 14 24 63 143 144 131 133 145 151 157 166 169 174 175 214 236 240 240 238 236 242 249
36 9 337 342 349 352 335 27 78 96 120 131 118 107 88 74 76 80 59 32 8 4 13 28 46 75 106 128 153 148 144 146 150 151 177 231 256 272 266 245 233 236 240 251
40 32 30 32 36 39 62 113 115 110 114 123 128 123 107 98 103 92 51 36 30 17 12 43 61 72 95 97 148 135 136 141 151 166 252 274 294 294 285 277 262 260 259 263
37 34 36 42 52 61 69 94 101 99 98 103 112 118 120 136 135 106 73 49 37 26 10 41 65 62 49 37 130 125 126 139 157 157 165 227 285 302 303 308 296 286 292 302
31 39 49 48 56 68 70 78 88 94 99 100 105 110 102 88 89 98 84 68 56 45 41 52 63 64 12 250 113 122 116 118 146 162 165 243 294 295 296 299 305 305 312 315
21 33 48 54 67 76 77 79 81 91 98 103 114 105 98 111 107 101 87 96 82 76 71 78 78 50 282 228 150 104 89 43 256 191 204 245 278 296 299 301 309 317 321 332
17 34 68 70 85 89 93 102 108 115 123 117 108 106 113 89 81 83 84 84 89 102 97 105 120 140 290 15 43 37 31 25 343 298 260 265 289 310 325 334 337 336 338 334
61 61 65 73 75 60 80 84 82 83 88 91 89 85 87 95 101 107 110 112 110 109 88 81 89 115 11 24 33 37 65 109 210 262 313 334 342 343 351 3 6 350 335 327
126 128 136 127 114 60 42 67 66 56 58 84 99 91 85 90 98 96 93 94 103 101 85 75 83 83 37 28 30 17 11 32 339 319 323 320 348 4 13 358 343 342 329 326
Height
1461 1458 1458 1458 1458 1457 1459 1457 1457 1454 1453 1453 1456 1460 1464 1467 1469 1470 1471 1473 1474 1474 1475 1476 1478 1479 1480 1482 1484 1485 1487 1488 1489 1491 1493 1495 1496 1498 1499 1500 1501 1503 1503 1504
1466 1460 1459 1459 1456 1455 1455 1454 1453 1453 1453 1452 1458 1462 1464 1466 1468 1469 1470 1471 1473 1473 1474 1475 1475 1477 1478 1479 1481 1482 1483 1485 1486 1488 1489 1491 1493 1494 1495 1496 1497 1498 1499 1500
1465 1458 1460 1461 1453 1452 1452 1451 1452 1453 1453 1455 1458 1461 1464 1466 1467 1468 1469 1470 1471 1472 1472 1473 1473 1474 1475 1477 1478 1479 1480 1482 1483 1484 1486 1487 1489 1490 1491 1492 1493 1494 1495 1496
1464 1465 1471 1453 1449 1450 1452 1451 1451 1452 1454 1456 1458 1461 1463 1465 1466 1467 1468 1469 1470 1471 1471 1471 1472 1473 1474 1475 1476 1477 1478 1479 1480 1481 1482 1484 1485 1486 1487 1489 1489 1490 1491 1492
1465 1463 1456 1452 1451 1452 1453 1452 1452 1453 1455 1457 1458 1460 1461 1464 1465 1467 1467 1468 1468 1469 1470 1470 1470 1471 1472 1473 1474 1475 1475 1476 1477 1478 1479 1480 1481 1483 1484 1485 1486 1486 1486 1488
1466 1468 1463 1452 1452 1455 1456 1454 1453 1454 1456 1457 1458 1457 1457 1462 1464 1465 1466 1466 1466 1467 1468 1468 1469 1469 1470 1471 1472 1472 1473 1474 1474 1475 1476 1477 1478 1479 1481 1482 1482 1483 1484 1484
1465 1464 1453 1453 1455 1457 1461 1456 1456 1456 1457 1458 1459 1458 1460 1461 1462 1463 1463 1464 1464 1464 1465 1466 1466 1467 1467 1468 1469 1470 1470 1471 1472 1472 1473 1473 1474 1476 1477 1479 1479 1481 1481 1481
1463 1464 1459 1457 1456 1457 1458 1459 1458 1458 1458 1459 1459 1459 1459 1459 1460 1461 1461 1461 1462 1462 1463 1463 1464 1464 1465 1465 1466 1467 1467 1468 1469 1470 1470 1471 1471 1472 1473 1475 1476 1477 1478 1478
1460 1460 1460 1461 1461 1462 1462 1461 1459 1459 1458 1459 1458 1458 1458 1458 1459 1459 1459 1460 1460 1460 1461 1461 1462 1462 1462 1462 1463 1464 1465 1465 1466 1467 1467 1467 1468 1469 1471 1471 1473 1474 1475 1475
1462 1458 1460 1461 1461 1461 1461 1461 1459 1459 1458 1458 1457 1457 1457 1457 1457 1457 1458 1458 1458 1459 1459 1459 1459 1460 1460 1460 1460 1461 1462 1463 1463 1464 1464 1465 1466 1467 1469 1469 1470 1471 1472 1472
1462 1460 1461 1460 1461 1461 1460 1459 1458 1457 1456 1456 1455 1455 1455 1455 1456 1456 1455 1456 1457 1457 1457 1456 1457 1457 1457 1457 1458 1459 1460 1460 1461 1462 1463 1463 1464 1465 1466 1467 1468 1469 1469 1470
1459 1460 1460 1459 1459 1459 1458 1457 1456 1455 1454 1454 1453 1453 1453 1453 1453 1453 1454 1454 1454 1455 1455 1455 1455 1455 1455 1455 1456 1456 1457 1458 1460 1461 1461 1462 1462 1463 1464 1465 1466 1466 1466 1466
1461 1460 1459 1458 1458 1457 1456 1455 1454 1453 1452 1452 1451 1451 1451 1451 1451 1451 1452 1452 1452 1453 1453 1453 1453 1454 1454 1454 1454 1455 1455 1457 1458 1459 1459 1459 1460 1461 1462 1463 1463 1463 1463 1463
1459 1459 1457 1456 1456 1455 1454 1453 1452 1451 1450 1450 1450 1449 1449 1449 1449 1449 1449 1450 1450 1451 1451 1451 1451 1452 1452 1452 1452 1453 1454 1455 1456 1457 1457 1458 1458 1459 1460 1461 1460 1461 1461 1461
1456 1456 1455 1454 1453 1452 1452 1451 1450 1449 1448 1448 1448 1448 1447 1447 1447 1447 1447 1447 1448 1448 1448 1449 1449 1449 1450 1450 1450 1451 1452 1453 1454 1454 1455 1456 1457 1457 1458 1459 1459 1459 1459 1459
1454 1453 1452 1452 1451 1450 1450 1449 1448 1448 1447 1447 1447 1446 1446 1446 1446 1446 1445 1446 1446 1446 1446 1446 1447 1447 1448 1448 1448 1449 1450 1451 1451 1452 1453 1454 1455 1456 1456 1456 1457 1457 1457 1457
1452 1451 1450 1450 1449 1448 1448 1447 1447 1446 1445 1446 1446 1445 1445 1445 1445 1445 1445 1445 1445 1445 1445 1445 1445 1445 1445 1446 1447 1447 1448 1449 1449 1451 1452 1453 1454 1454 1454 1454 1455 1455 1456 1455
1450 1450 1449 1449 1448 1447 1447 1446 1446 1445 1445 1445 1445 1445 1445 1445 1445 1445 1445 1445 1445 1445 1444 1444 1444 1444 1445 1445 1446 1446 1447 1448 1449 1450 1451 1451 1452 1452 1452 1452 1453 1453 1453 1453
1448 1448 1448 1448 1448 1447 1446 1445 1445 1445 1445 1445 1445 1445 1445 1445 1445 1445 1445 1445 1444 1444 1444 1444 1444 1444 1444 1445 1445 1445 1446 1447 1448 1449 1449 1449 1450 1450 1450 1450 1451 1451 1450 1450
1448 1448 1447 1447 1447 1447 1446 1446 1446 1445 1445 1445 1445 1446 1446 1446 1446 1446 1445 1445 1445 1445 1444 1444 1444 1444 1444 1444 1445 1446 1446 1447 1447 1448 1448 1448 1448 1448 1448 1448 1448 1448 1448 1448
1449 1448 1447 1447 1447 1447 1446 1446 1446 1446 1446 1446 1446 1446 1446 1447 1447 1446 1446 1446 1446 1445 1445 1444 1444 1444 1444 1444 1445 1446 1446 1447 1447 1447 1447 1447 1447 1447 1447 1447 1447 1446 1446 1446
1449 1448 1448 1447 1447 1447 1446 1446 1446 1446 1446 1446 1447 1447 1447 1447 1447 1447 1447 1447 1447 1446 1445 1445 1445 1444 1444 1445 1446 1446 1446 1446 1446 1446 1446 1446 1446 1446 1446 1446 1445 1445 1445 1444
1449 1449 1448 1448 1447 1447 1447 1446 1447 1446 1447 1447 1447 1447 1447 1448 1448 1448 1448 1448 1447 1447 1446 1446 1445 1445 1445 1445 1446 1446 1446 1446 1446 1446 1446 1446 1446 1446 1445 1445 1445 1444 1443 1443
1449 1449 1448 1448 1448 1447 1447 1447 1447 1447 1447 1447 1447 1447 1448 1448 1448 1448 1448 1448 1447 1447 1447 1446 1445 1445 1445 1446 1446 1445 1445 1445 1446 1446 1446 1445 1445 1445 1444 1444 1443 1443 1442 1440
1449 1449 1449 1448 1448 1448 1448 1447 1447 1447 1447 1447 1447 1447 1448 1448 1448 1448 1448 1448 1447 1447 1448 1447 1446 1446 1446 1446 1446 1445 1445 1445 1445 1445 1445 1445 1444 1444 1443 1442 1442 1441 1440 1439
1449 1449 1449 1449 1449 1449 1448 1448 1448 1448 1448 1448 1448 1448 1448 1448 1448 1448 1448 1448 1448 1447 1447 1447 1447 1446 1446 1446 1446 1445 1445 1445 1444 1444 1444 1443 1443 1442 1442 1441 1440 1439 1438 1437
1449 1449 1449 1449 1449 1449 1448 1448 1448 1448 1448 1448 1448 1448 1448 1448 1448 1448 1448 1448 1448 1448 1448 1447 1447 1447 1446 1446 1445 1445 1444 1444 1444 1443 1443 1442 1442 1441 1440 1440 1439 1438 1437 1436